HI1025 TJSJ-MDJB

Flight info

Callsign HI1025
Flight time 0h 42m
Altitude 36000
Route SJU RTE2 BQN B520 ANTEX/N0428F180 B520 CDO DCT OLITA
Aircraft C700/M-SBDGHM1RWXY/LB2

Departure

Time 2026-05-07 00:14
Airport Luis Munoz Marin International Airport (TJSJ)

Arrival

Time 2026-05-07 00:56
Airport La Isabela International Airport (MDJB)
Time Latitude Longitude Altitude Speed Heading
2026-05-06 23:50 18.44190 -65.99857 12 ft 0 kts 251°
2026-05-07 00:03 18.44183 -65.99881 20 ft 5 kts 260°
2026-05-07 00:03 18.44186 -65.99904 12 ft 0 kts 291°
2026-05-07 00:04 18.44187 -65.99905 12 ft 1 kts 296°
2026-05-07 00:04 18.44206 -65.99914 12 ft 6 kts 340°
2026-05-07 00:05 18.44258 -65.99937 12 ft 10 kts 315°
2026-05-07 00:05 18.44241 -66.00010 12 ft 12 kts 247°
2026-05-07 00:05 18.44203 -66.00108 12 ft 16 kts 247°
2026-05-07 00:05 18.44144 -66.00184 12 ft 14 kts 163°
2026-05-07 00:06 18.44046 -66.00139 12 ft 17 kts 156°
2026-05-07 00:06 18.43938 -66.00091 12 ft 15 kts 158°
2026-05-07 00:06 18.43831 -66.00044 11 ft 18 kts 157°
2026-05-07 00:06 18.43707 -65.99989 11 ft 14 kts 157°
2026-05-07 00:07 18.43652 -65.99974 11 ft 8 kts 178°
2026-05-07 00:07 18.43599 -65.99977 11 ft 8 kts 182°
2026-05-07 00:07 18.43554 -65.99935 11 ft 11 kts 121°
2026-05-07 00:07 18.43476 -65.99925 11 ft 14 kts 216°
2026-05-07 00:08 18.43464 -66.00036 11 ft 18 kts 270°
2026-05-07 00:08 18.43464 -66.00177 11 ft 21 kts 270°
2026-05-07 00:08 18.43465 -66.00345 11 ft 25 kts 270°
2026-05-07 00:08 18.43465 -66.00536 11 ft 28 kts 270°
2026-05-07 00:09 18.43466 -66.00746 11 ft 25 kts 270°
2026-05-07 00:09 18.43466 -66.00910 11 ft 24 kts 270°
2026-05-07 00:09 18.43466 -66.01099 11 ft 27 kts 269°
2026-05-07 00:09 18.43467 -66.01251 11 ft 20 kts 270°
2026-05-07 00:10 18.43467 -66.01372 11 ft 17 kts 270°
2026-05-07 00:10 18.43541 -66.01437 11 ft 17 kts
2026-05-07 00:10 18.43675 -66.01437 11 ft 21 kts 360°
2026-05-07 00:10 18.43737 -66.01437 11 ft 11 kts
2026-05-07 00:11 18.43751 -66.01437 11 ft 0 kts 358°
2026-05-07 00:12 18.43756 -66.01495 11 ft 13 kts 251°
2026-05-07 00:12 18.43758 -66.01524 11 ft 0 kts 293°
2026-05-07 00:13 18.43763 -66.01532 11 ft 7 kts 303°
2026-05-07 00:13 18.43816 -66.01569 11 ft 11 kts 345°
2026-05-07 00:13 18.43854 -66.01544 11 ft 0 kts 71°
2026-05-07 00:13 18.43857 -66.01534 11 ft 13 kts 68°
2026-05-07 00:14 18.44039 -66.01088 13 ft 121 kts 67°
2026-05-07 00:14 18.44471 -66.00085 689 ft 168 kts 58°
2026-05-07 00:14 18.45504 -65.99375 1843 ft 200 kts 11°
2026-05-07 00:14 18.46929 -65.99600 2866 ft 217 kts 340°
2026-05-07 00:15 18.48398 -66.00264 3856 ft 248 kts 336°
2026-05-07 00:15 18.50069 -66.01051 4864 ft 272 kts 335°
2026-05-07 00:15 18.51825 -66.01875 5836 ft 275 kts 335°
2026-05-07 00:15 18.53566 -66.02685 6778 ft 276 kts 335°
2026-05-07 00:16 18.55350 -66.03508 7691 ft 280 kts 335°
2026-05-07 00:16 18.57007 -66.04550 8651 ft 284 kts 314°
2026-05-07 00:16 18.57892 -66.06400 9693 ft 290 kts 279°
2026-05-07 00:16 18.57798 -66.08685 10006 ft 337 kts 258°
2026-05-07 00:17 18.57187 -66.11139 10014 ft 355 kts 254°
2026-05-07 00:17 18.56590 -66.13640 10762 ft 348 kts 259°
2026-05-07 00:17 18.56308 -66.16194 11575 ft 361 kts 267°
2026-05-07 00:17 18.56246 -66.18874 12431 ft 365 kts 270°
2026-05-07 00:18 18.56181 -66.21563 13294 ft 368 kts 267°
2026-05-07 00:18 18.55970 -66.24236 14143 ft 371 kts 265°
2026-05-07 00:18 18.55722 -66.26966 14943 ft 375 kts 266°
2026-05-07 00:18 18.55540 -66.29714 15771 ft 378 kts 268°
2026-05-07 00:19 18.55380 -66.32481 16608 ft 383 kts 268°
2026-05-07 00:19 18.55189 -66.35307 17482 ft 387 kts 267°
2026-05-07 00:19 18.54984 -66.38128 18366 ft 389 kts 267°
2026-05-07 00:19 18.54784 -66.40999 19156 ft 393 kts 268°
2026-05-07 00:20 18.54591 -66.43866 20202 ft 398 kts 267°
2026-05-07 00:20 18.54388 -66.46802 21312 ft 405 kts 267°
2026-05-07 00:20 18.54177 -66.49793 22358 ft 412 kts 267°
2026-05-07 00:20 18.53968 -66.52804 23376 ft 419 kts 267°
2026-05-07 00:21 18.53754 -66.55907 24251 ft 426 kts 267°
2026-05-07 00:21 18.53535 -66.59048 25148 ft 430 kts 267°
2026-05-07 00:21 18.53312 -66.62218 26048 ft 436 kts 267°
2026-05-07 00:21 18.53088 -66.65386 26906 ft 441 kts 267°
2026-05-07 00:22 18.52858 -66.68644 27753 ft 447 kts 267°
2026-05-07 00:22 18.52630 -66.71912 28551 ft 452 kts 267°
2026-05-07 00:22 18.52397 -66.75243 29354 ft 457 kts 267°
2026-05-07 00:22 18.52156 -66.78617 30079 ft 466 kts 267°
2026-05-07 00:23 18.51909 -66.82060 30084 ft 478 kts 267°
2026-05-07 00:23 18.51660 -66.85549 30080 ft 470 kts 267°
2026-05-07 00:23 18.51176 -66.92328 30094 ft 466 kts 268°
2026-05-07 00:24 18.50685 -66.99198 30108 ft 472 kts 268°
2026-05-07 00:24 18.50185 -67.06065 30107 ft 470 kts 268°
2026-05-07 00:25 18.49788 -67.12888 30102 ft 466 kts 271°
2026-05-07 00:25 18.49677 -67.19736 30103 ft 468 kts 271°
2026-05-07 00:26 18.49529 -67.26622 30101 ft 470 kts 271°
2026-05-07 00:26 18.49395 -67.33505 30094 ft 471 kts 272°
2026-05-07 00:27 18.49251 -67.40419 30083 ft 469 kts 271°
2026-05-07 00:27 18.49109 -67.47258 30075 ft 468 kts 271°
2026-05-07 00:28 18.48963 -67.54107 30074 ft 467 kts 271°
2026-05-07 00:28 18.48816 -67.60932 30074 ft 467 kts 272°
2026-05-07 00:29 18.48666 -67.67774 30074 ft 466 kts 272°
2026-05-07 00:30 18.48358 -67.81393 29396 ft 456 kts 272°
2026-05-07 00:30 18.48281 -67.84642 28810 ft 438 kts 272°
2026-05-07 00:30 18.48208 -67.87799 28242 ft 418 kts 271°
2026-05-07 00:31 18.48139 -67.90770 27706 ft 402 kts 271°
2026-05-07 00:31 18.48073 -67.93688 27183 ft 393 kts 271°
2026-05-07 00:31 18.48007 -67.96565 26668 ft 390 kts 271°
2026-05-07 00:31 18.47942 -67.99402 26160 ft 392 kts 271°
2026-05-07 00:32 18.47874 -68.02289 25792 ft 391 kts 271°
2026-05-07 00:32 18.47817 -68.05130 25471 ft 392 kts 271°
2026-05-07 00:32 18.47760 -68.08013 25140 ft 392 kts 271°
2026-05-07 00:32 18.47700 -68.10896 24808 ft 393 kts 270°
2026-05-07 00:33 18.47638 -68.13772 24478 ft 390 kts 270°
2026-05-07 00:33 18.47577 -68.16587 24150 ft 388 kts 270°
2026-05-07 00:33 18.47517 -68.19413 23831 ft 386 kts 270°
2026-05-07 00:33 18.47457 -68.22244 23471 ft 384 kts 270°
2026-05-07 00:34 18.47395 -68.25049 23132 ft 381 kts 270°
2026-05-07 00:34 18.47335 -68.27803 22810 ft 378 kts 270°
2026-05-07 00:34 18.47275 -68.30569 22489 ft 376 kts 270°
2026-05-07 00:34 18.47213 -68.33326 22169 ft 374 kts 270°
2026-05-07 00:35 18.47151 -68.36058 21853 ft 372 kts 270°
2026-05-07 00:35 18.47092 -68.38761 21539 ft 371 kts 270°
2026-05-07 00:35 18.47030 -68.41470 21225 ft 370 kts 270°
2026-05-07 00:35 18.46968 -68.44185 20890 ft 369 kts 270°
2026-05-07 00:36 18.46906 -68.46881 20576 ft 368 kts 270°
2026-05-07 00:36 18.46845 -68.49560 20266 ft 366 kts 270°
2026-05-07 00:36 18.46782 -68.52228 19956 ft 363 kts 270°
2026-05-07 00:36 18.46721 -68.54878 19650 ft 361 kts 270°
2026-05-07 00:37 18.46660 -68.57515 19344 ft 359 kts 270°
2026-05-07 00:37 18.46598 -68.60107 19042 ft 357 kts 270°
2026-05-07 00:37 18.46536 -68.62724 18746 ft 356 kts 270°
2026-05-07 00:37 18.46474 -68.65331 18446 ft 355 kts 270°
2026-05-07 00:38 18.46413 -68.67915 18114 ft 353 kts 270°
2026-05-07 00:38 18.46349 -68.70505 17752 ft 352 kts 270°
2026-05-07 00:38 18.46286 -68.73093 17441 ft 349 kts 269°
2026-05-07 00:38 18.46225 -68.75611 17156 ft 347 kts 269°
2026-05-07 00:39 18.46164 -68.78169 16853 ft 346 kts 269°
2026-05-07 00:39 18.46100 -68.80713 16560 ft 346 kts 269°
2026-05-07 00:39 18.46023 -68.83225 16273 ft 346 kts 269°
2026-05-07 00:39 18.45945 -68.85737 15978 ft 346 kts 269°
2026-05-07 00:40 18.45870 -68.88292 15682 ft 346 kts 269°
2026-05-07 00:40 18.45799 -68.90835 15387 ft 345 kts 269°
2026-05-07 00:40 18.45728 -68.93325 15098 ft 344 kts 269°
2026-05-07 00:40 18.45651 -68.95839 14807 ft 342 kts 268°
2026-05-07 00:41 18.45576 -68.98345 14516 ft 341 kts 268°
2026-05-07 00:41 18.45502 -69.00850 14227 ft 341 kts 268°
2026-05-07 00:41 18.45427 -69.03348 13935 ft 340 kts 268°
2026-05-07 00:41 18.45350 -69.05834 13614 ft 340 kts 268°
2026-05-07 00:42 18.45276 -69.08317 13322 ft 338 kts 268°
2026-05-07 00:42 18.45202 -69.10760 13035 ft 337 kts 268°
2026-05-07 00:42 18.45127 -69.13236 12750 ft 335 kts 268°
2026-05-07 00:42 18.45050 -69.15695 12456 ft 333 kts 268°
2026-05-07 00:43 18.44978 -69.18096 12175 ft 331 kts 268°
2026-05-07 00:43 18.44903 -69.20517 11894 ft 330 kts 268°
2026-05-07 00:43 18.44828 -69.22931 11604 ft 329 kts 269°
2026-05-07 00:43 18.44752 -69.25339 11329 ft 327 kts 269°
2026-05-07 00:44 18.44678 -69.27720 11046 ft 326 kts 269°
2026-05-07 00:44 18.44604 -69.30100 10770 ft 321 kts 269°
2026-05-07 00:44 18.44530 -69.32403 10499 ft 306 kts 269°
2026-05-07 00:44 18.44460 -69.34594 10242 ft 293 kts 269°
2026-05-07 00:45 18.44393 -69.36710 10000 ft 287 kts 269°
2026-05-07 00:45 18.44328 -69.38816 9747 ft 289 kts 269°
2026-05-07 00:45 18.44262 -69.40920 9499 ft 293 kts 269°
2026-05-07 00:45 18.44190 -69.43081 9247 ft 296 kts 269°
2026-05-07 00:46 18.44122 -69.45248 8996 ft 296 kts 269°
2026-05-07 00:46 18.44052 -69.47408 8742 ft 295 kts 268°
2026-05-07 00:46 18.43980 -69.49568 8492 ft 292 kts 268°
2026-05-07 00:46 18.43911 -69.51713 8248 ft 291 kts 268°
2026-05-07 00:47 18.43843 -69.53837 8002 ft 291 kts 268°
2026-05-07 00:47 18.43774 -69.55940 7758 ft 290 kts 268°
2026-05-07 00:47 18.43705 -69.58083 7504 ft 290 kts 268°
2026-05-07 00:47 18.43633 -69.60207 7253 ft 290 kts 267°
2026-05-07 00:48 18.43561 -69.62311 7017 ft 290 kts 267°
2026-05-07 00:48 18.43493 -69.64437 6774 ft 289 kts 267°
2026-05-07 00:48 18.43401 -69.66553 6522 ft 288 kts 263°
2026-05-07 00:48 18.42951 -69.68600 6266 ft 286 kts 253°
2026-05-07 00:49 18.42435 -69.70605 6024 ft 284 kts 254°
2026-05-07 00:49 18.41944 -69.72615 5787 ft 282 kts 254°
2026-05-07 00:49 18.41452 -69.74614 5546 ft 281 kts 254°
2026-05-07 00:49 18.40949 -69.76602 5311 ft 279 kts 254°
2026-05-07 00:50 18.40456 -69.78554 5076 ft 277 kts 254°
2026-05-07 00:50 18.39966 -69.80521 4840 ft 276 kts 254°
2026-05-07 00:50 18.39480 -69.82469 4600 ft 274 kts 254°
2026-05-07 00:50 18.38998 -69.84383 4368 ft 273 kts 254°
2026-05-07 00:51 18.38514 -69.86308 4138 ft 271 kts 254°
2026-05-07 00:51 18.38032 -69.88232 3907 ft 270 kts 254°
2026-05-07 00:51 18.37640 -69.90161 3671 ft 269 kts 264°
2026-05-07 00:51 18.37744 -69.92117 3445 ft 269 kts 280°
2026-05-07 00:52 18.38258 -69.93986 3225 ft 268 kts 287°
2026-05-07 00:52 18.38900 -69.95829 2996 ft 267 kts 296°
2026-05-07 00:52 18.39989 -69.97420 2762 ft 267 kts 313°
2026-05-07 00:52 18.41430 -69.98615 2529 ft 257 kts 329°
2026-05-07 00:53 18.43004 -69.99310 2313 ft 239 kts 345°
2026-05-07 00:53 18.44591 -69.99557 2103 ft 223 kts 358°
2026-05-07 00:53 18.46081 -69.99623 1968 ft 202 kts 358°
2026-05-07 00:53 18.47406 -69.99701 1774 ft 183 kts 356°
2026-05-07 00:54 18.48585 -69.99701 1709 ft 146 kts
2026-05-07 00:54 18.49540 -69.99568 1614 ft 140 kts
2026-05-07 00:54 18.50425 -69.99410 1416 ft 126 kts
2026-05-07 00:54 18.51301 -69.99285 1220 ft 126 kts
2026-05-07 00:55 18.52165 -69.99197 988 ft 129 kts
2026-05-07 00:55 18.53054 -69.99075 788 ft 125 kts
2026-05-07 00:55 18.53922 -69.98979 580 ft 128 kts
2026-05-07 00:55 18.54786 -69.98866 481 ft 126 kts
2026-05-07 00:56 18.55653 -69.98756 307 ft 122 kts
2026-05-07 00:56 18.56511 -69.98654 132 ft 124 kts
2026-05-07 00:56 18.57238 -69.98568 94 ft 80 kts
2026-05-07 00:56 18.57578 -69.98526 96 ft 32 kts
2026-05-07 00:57 18.57730 -69.98510 97 ft 16 kts
2026-05-07 00:57 18.57856 -69.98494 96 ft 20 kts
2026-05-07 00:57 18.57962 -69.98445 97 ft 17 kts 79°
2026-05-07 00:57 18.57939 -69.98328 97 ft 11 kts 139°
2026-05-07 00:58 18.57830 -69.98330 97 ft 21 kts 186°
2026-05-07 00:58 18.57676 -69.98346 97 ft 20 kts 185°
2026-05-07 00:58 18.57592 -69.98310 97 ft 10 kts 108°
2026-05-07 00:58 18.57590 -69.98288 97 ft 0 kts 96°